This is the latest recevied weather packets stored in our database for station/object KB1JLI. If no packets are shown the sender has not sent any weather packets the latest 10 day(s).
| Time | Temp. | Humidity | Pressure | Rain* | Wind** | Luminosity | Snow |
|---|---|---|---|---|---|---|---|
| 1777409138 | 12.22° C | 28% | 1021.9 hPa | 0 mm | - | 46 W/m² | - |
| 1777408834 | 12.78° C | 30% | 1021.6 hPa | 0 mm | - | 114 W/m² | - |
| 1777408530 | 12.78° C | 32% | 1021.7 hPa | 0 mm | - | 53 W/m² | - |
| 1777408230 | 12.78° C | 28% | 1021.5 hPa | 0 mm | - | 68 W/m² | - |
| 1777407926 | 12.78° C | 29% | 1021.6 hPa | 0 mm | - | 51 W/m² | - |
| 1777407623 | 12.78° C | 29% | 1021.8 hPa | 0 mm | - | 59 W/m² | - |
| 1777407318 | 12.78° C | 30% | 1022 hPa | 0 mm | - | 229 W/m² | - |
| 1777407018 | 12.78° C | 28% | 1022 hPa | 0 mm | - | 314 W/m² | - |
| 1777406714 | 13.33° C | 28% | 1022 hPa | 0 mm | - | 415 W/m² | - |
| 1777406409 | 13.33° C | 27% | 1022 hPa | 0 mm | - | 376 W/m² | - |
| 1777406108 | 13.33° C | 25% | 1021.7 hPa | 0 mm | - | 439 W/m² | - |
| 1777405804 | 13.89° C | 31% | 1021.7 hPa | 0 mm | - | 476 W/m² | - |
| 1777405501 | 13.89° C | 32% | 1021.8 hPa | 0 mm | - | 483 W/m² | - |
| 1777405199 | 13.33° C | 33% | 1021.9 hPa | 0 mm | - | 474 W/m² | - |
| 1777404896 | 13.89° C | 33% | 1022.1 hPa | 0 mm | - | 499 W/m² | - |
| 1777404593 | 13.89° C | 36% | 1022.1 hPa | 0 mm | - | 507 W/m² | - |
| 1777404289 | 14.44° C | 34% | 1022.2 hPa | 0 mm | - | 519 W/m² | - |
| 1777403985 | 14.44° C | 33% | 1022.1 hPa | 0 mm | - | 523 W/m² | - |
| 1777403681 | 13.89° C | 35% | 1022.1 hPa | 0 mm | - | 537 W/m² | - |
| 1777403379 | 13.89° C | 35% | 1022 hPa | 0 mm | - | 547 W/m² | - |
| 1777403074 | 13.89° C | 34% | 1022.2 hPa | 0 mm | - | 554 W/m² | - |
| 1777402770 | 13.89° C | 35% | 1022.3 hPa | 0 mm | - | 567 W/m² | - |
| 1777402466 | 13.89° C | 35% | 1022.2 hPa | 0 mm | - | 573 W/m² | - |
| 1777402164 | 13.89° C | 35% | 1022.4 hPa | 0 mm | - | 585 W/m² | - |
| 1777401859 | 13.89° C | 36% | 1022.3 hPa | 0 mm | - | 594 W/m² | - |
* Rain latest hour (hover to see other rain measurements)
** Current wind speed in m/s (hover to see current wind gust speed)